DW5513 Weather Reports


time (UTC)temp
F
wind
direction
speed
knots
gust
knots
rain 1hr
in
rain 24hr
in
rain mn
in
humidity
%
barometer
mb
20260504231531 67 176 0.0 0.0 0.00 0.02 0.00 53 1005.6
20260504230011 69 177 0.0 0.9 0.00 0.02 0.00 48 1005.4
20260504224508 70 139 0.0 1.7 0.00 0.02 0.00 44 1005.3
20260504223008 69 227 0.0 1.7 0.00 0.02 0.00 44 1005.5
20260504221506 69 251 0.0 3.5 0.00 0.02 0.00 45 1005.5
20260504220006 69 164 0.0 3.5 0.00 0.02 0.00 44 1005.5
20260504214509 70 143 0.9 5.2 0.00 0.02 0.00 42 1005.5
20260504213006 71 236 0.9 4.3 0.00 0.02 0.00 41 1005.4
20260504211500 70 237 1.7 5.2 0.00 0.02 0.00 43 1005.6
20260504210106 70 158 0.0 4.3 0.00 0.02 0.00 46 1005.7
20260504204638 69 239 0.0 3.5 0.00 0.02 0.00 44 1005.7
20260504203057 69 79 0.0 7.0 0.00 0.02 0.00 45 1005.9
20260504201554 69 143 0.9 5.2 0.00 0.02 0.00 45 1006.0
20260504200056 70 70 2.6 6.1 0.00 0.02 0.00 44 1006.1
20260504194554 69 175 0.9 6.1 0.00 0.02 0.00 45 1006.4
20260504193049 69 251 1.7 10.4 0.00 0.02 0.00 43 1006.5
20260504191546 69 156 1.7 8.7 0.00 0.02 0.00 45 1006.6
20260504190053 68 340 0.9 9.6 0.00 0.02 0.00 45 1006.8
20260504184558 68 255 2.6 10.4 0.00 0.02 0.00 46 1006.9
20260504183041 68 175 1.7 6.1 0.00 0.02 0.00 45 1007.0
20260504181538 67 259 3.5 9.6 0.00 0.02 0.00 45 1007.2
20260504180037 67 296 0.9 7.0 0.00 0.02 0.00 46 1007.1
20260504174535 67 252 3.5 9.6 0.00 0.02 0.00 45 1007.3
20260504173033 66 252 2.6 10.4 0.00 0.02 0.00 46 1007.4
20260504171539 65 232 1.7 7.0 0.00 0.02 0.00 50 1007.4
20260504081501 39 89 0.0 0.0 0.00 0.02 0.00 95 1010.1
20260504044540 44 252 0.0 0.9 0.00 0.02 0.00 92 1010.6
20260504043032 44 271 0.0 0.0 0.00 0.02 0.00 91 1010.9
20260504041532 44 271 0.0 0.0 0.01 0.02 0.00 90 1011.1
20260504040028 44 271 0.0 0.0 0.02 0.02 0.00 89 1011.0
20260504034526 45 271 0.0 0.9 0.02 0.02 0.02 88 1010.9
20260504033026 45 290 0.0 1.7 0.02 0.02 0.02 86 1011.2
20260504031524 45 332 0.9 3.5 0.01 0.01 0.01 84 1011.5
20260504030035 45 221 0.0 2.6 0.00 0.00 0.00 81 1011.7
20260504024523 46 70 0.0 1.7 0.00 0.00 0.00 77 1011.4
20260504023022 46 349 0.0 2.6 0.00 0.00 0.00 74 1011.3
20260504021526 47 42 0.0 0.9 0.00 0.00 0.00 69 1011.4
20260504020020 47 38 0.0 1.7 0.00 0.00 0.00 67 1011.3
20260504014520 48 56 0.9 3.5 0.00 0.00 0.00 64 1011.2
20260504013019 48 34 0.0 4.3 0.00 0.00 0.00 62 1011.2
20260504011519 49 22 0.0 4.3 0.00 0.00 0.00 61 1011.2
20260504010017 49 321 0.9 5.2 0.00 0.00 0.00 59 1011.1
20260504004522 49 231 1.7 5.2 0.00 0.00 0.00 57 1011.1
20260504003016 49 198 0.0 2.6 0.00 0.00 0.00 55 1010.9
20260504001515 49 226 0.0 1.7 0.00 0.00 0.00 53 1010.7
20260504000016 50 326 0.0 0.9 0.00 0.00 0.00 52 1010.6
20260503234526 50 252 0.0 3.5 0.00 0.00 0.00 51 1010.5
20260503233014 51 356 3.5 9.6 0.00 0.00 0.00 49 1010.7